STARLINK-34375

Last updated on Thu Jul 03 2025 00:02:07 GMT+0000 (Coordinated Universal Time)

1 64477U 25133F 25183.58335648 -.01064010 00000+0 -52750-2 0 9997 2 64477 53.1561 210.8321 0000957 58.3010 288.8148 15.83924206 2726
UTC large
Height (km)
Speed (km/s)
/
Latitude / Longitude
Inclination (degrees)
Orbital Period (minutes)
Azimuth
Elevation
Range (km)
Doppler Factor

Next 0 passes for location: London (51.5072 / 0.1276)

Sorry there are no passes over London.